Showing default

DMC 3-FM1, 40715

Orbit data source: Space-Track

DMC 3-FM1, 40715 is a payload satellite owned by DMCii (UK) in SSO that was launched on Fri, 10 Jul 2015 UTC via a PSLV-XL launch vehicle from the Sirharikota (SRI). Payload-class satellites include a variety of spacecraft equipped with specific instruments for various scientific and technological missions. These include communications satellites like Starlink; space stations such as the ISS; scientific satellites like the Hubble; Earth observation satellites from companies like Planet Labs, Umbra, and HawkEye 360; GPS; miniature CubeSats for education and research; and military/defense satellites.

Loading next visibility...
Identifier
40715, 2015-032A
Orbit
SSO
Last TLE update
7 hours ago
Origin
Manufacturer
SSTL (Astrium)
Mission
Operational Commercial Imaging
Bus & Motor
SSTL-300S1, Unknown motor
Mass
447 kg wet, 435 kg dry
Launch date (UTC)
2015-07-10 (10 years ago)
Launch vehicle
PSLV-XL
Launch site
Sirharikota (SRI)
Object type
Payload
Rocket body
Debris
Shape & HBR
Hept Cyl + Cyl, 2.5 m
Radar Cross Section
2.356 m², Large (>1 m²)

Expand to show TLE details & history

TLE from 7 hours ago
0 DMC 3-FM1
1 40715U 15032A   25187.64133668  .00000476  00000-0  61646-4 0  9992
2 40715  97.6956  60.4514 0007043 106.5336 253.6654 14.85107602538617
Epoch: 2025-07-06T15:23Z
TLE epoch observation values (Epoch: 2025-07-06T15:23:31.489Z)
Latitude
0.00005°
Longitude
-95.29192°
Altitude
617.671 km
Speed
7.549 km/s
True Right ascension
04h 01m 48s
True Declination
0° 00' 00"
Sunlit
Object was in daylight at epoch
Visualization orbit readout
Latitude
14.75577°
Longitude
-97.05742°
Altitude
615.621 km
Speed
7.552 km/s
Apparent Right ascension
01h 31m 24s
Apparent Declination
-15° 22' 11"
Sunlit
Object is in daylight
Visualization observer readout
Local Sidereal Time
09:55:39
Azimuth
281.664° WNW
Elevation
-37.258°
Doppler factor
1
Orbital elements
Apogee altitude
615.195 km
Perigee altitude
605.351 km
Semi-major axis
6,988.41 km
Eccentricity
0.0007
Inclination
97.6956°
RAAN
60.4514°
Arg. of periapsis
106.5336°
True anomaly
Unknown
Mean anomaly
253.6654°
Eccentric anomaly
Unknown
Mean motion
3.71514 °/min
Orbital period
96.9 mins
BSTAR
0.000061646
Loading maneuver chart data...
Loading SW <> Apogee altitude chart data...
Loading historical data...
Loading historical data...
Loading historical data...
Loading historical data...
Loading historical data...
Loading historical data...
Loading historical data...
Other satellites on launch #32 in the year 2015 (2015-07-10 UTC)

DMC 3-FM1 Visibility forecast

Observer location: undefined°, undefined°

Span
Click to sort rows by Start time (UTC) header in descending order
Start Az.
Max El. time (UTC)
Max El. Az.
Max El.
End time (UTC)
End Az.
4 mins2025-07-07 03:18:36.205Z60.342° ENE2025-07-07 03:20:36.205Z90.329° ESE14.819°2025-07-07 03:22:36.205Z121.223° SE
6 mins2025-07-07 04:54:36.205Z345.779° N2025-07-07 04:56:36.205Z299.044° NW33.463°2025-07-07 05:00:36.205Z218.33° SW
7 mins2025-07-07 15:46:36.205Z180.753° SSW2025-07-07 15:49:36.205Z262.558° W41.964°2025-07-07 15:53:36.205Z340.933° N
|